星链-3863 (STARLINK-3863 )

导读

STARLINK-3863是美国太空探索技术公司星链星座的卫星,由SpaceX于2022年5月6日发射入轨,属于星链互联网卫星组网计划的组成部分。星链项目旨在构建覆盖全球的低轨卫星互联网星座,该卫星承担为全球偏远地区等提供高速互联网接入服务的任务,延续了星链低轨星座批量部署、服务全球联网的发展方向。

Basic Information
目录编号:
52465
目录名称:
STARLINK-3863
国际标识:
2022-049Q
轨道中心:
EARTH
卫星名称:
星链-3863
卫星全名:
星链-3863 (STARLINK-3863 )
卫星状态:
在轨 (已飞行1582 天)
发射日期:
2022-05-06 UTC
国别 :
美国 (US)
星等 :
--
Orbit Information
数据来源 国际轨道数据
星历时间: 2026-09-03T23:04:14+0800
15小时前
查看轨道信息
半长轴: 6837.865km
偏心率: 0.0000995
轨道倾角: 53.161°
近地点辐角 69.742°
升交点赤经 323.187°
平近点角 290.369°
近地点: 459.047km
远地点: 460.409km
周期: 93.787分钟
每日圈数: 15.354016
Detailed Information
固有亮度:
5
最大亮度:
2.5
卫星平台:
Starlink v1.5
覆盖范围:
全球
运营商:
太空探索技术公司
运营商所在国:
美国
制造商(研发单位):
太空探索技术公司
制造商所在国:
美国
使用方式:
暂无
Satellite Introduction
星链(Starlink)计划是由太空探索技术公司(SpaceX)提出的一个巨型低轨卫星互联网星座项目,计划在2019年至2024年间在太空搭建由约1.2万颗卫星组成的“星链”网络,其中1584颗将部署在地球上空550千米处的近地轨道,并从2020年开始工作。该卫星仍在工作。
2D Orbit Map
3D Orbit Map
Orbit Altitude Analysis Chart
Orbit Inclination Analysis Chart
Orbit Comprehensive Analysis Chart
View Comprehensive Chart
Conjunction Data List
Event ID Objects TCA Miss Dist (km) Collision Risk Probability Collision Risk Index (CRI) Action
CDM_260903-163705-246506-321922
OBJECT K (63219)
2026-09-03T
16:37:48+0000
2.661 km
极远距离
1.578856E-6 低风险 0.39
CDM_260903-233205-246506-640121
2026-09-03T
23:32:08+0000
2.632 km
极远距离
1.39562E-6 低风险 0.38
CDM_260903-155305-246506-819221
2026-09-03T
15:53:51+0000
2.979 km
极远距离
1.206273E-6 低风险 0.37
CDM_260904-025805-112005-246521
2026-09-04T
02:58:43+0000
2.853 km
极远距离
1.172414E-6 低风险 0.36
CDM_260903-153605-246506-536821
2026-09-03T
15:36:14+0000
2.924 km
极远距离
1.044472E-6 低风险 0.35
CDM_260902-111805-246506-804821
2026-09-02T
11:18:28+0000
2.966 km
极远距离
5.304743E-7 极低风险 0.29